Time,TemperatureF,DewpointF,PressureIn,WindDirection,WindDirectionDegrees,WindSpeedMPH,WindSpeedGustMPH,Humidity,HourlyPrecipIn,Conditions,Clouds,dailyrainin,SoftwareType,DateUTC
2013-08-05 00:02:00,62.6,60.2,30.12,South,182,1.9,4.6,92,0.00,BKN,,0.00,WeatherDisplay:10.37,2013-08-05 05:02:00,
2013-08-05 00:07:00,62.4,60.7,30.12,ESE,122,2.2,3.5,94,0.00,BKN,,0.00,WeatherDisplay:10.37,2013-08-05 05:07:00,
2013-08-05 00:11:00,62.4,60.9,30.12,South,177,0.8,2.3,95,0.00,BKN,,0.00,WeatherDisplay:10.37,2013-08-05 05:11:00,
2013-08-05 00:17:00,62.0,60.6,30.12,NNE,30,0.0,2.3,95,0.00,BKN,,0.00,WeatherDisplay:10.37,2013-08-05 05:17:00,
2013-08-05 00:22:00,61.9,60.7,30.12,SSE,156,0.7,3.5,96,0.00,BKN,,0.00,WeatherDisplay:10.37,2013-08-05 05:22:00,
2013-08-05 00:27:00,61.8,60.9,30.12,SSW,201,3.2,4.6,97,0.00,BKN,,0.00,WeatherDisplay:10.37,2013-08-05 05:27:00,
2013-08-05 00:31:00,61.7,61.1,30.12,ESE,123,3.9,6.9,98,0.00,BKN,,0.00,WeatherDisplay:10.37,2013-08-05 05:31:00,
2013-08-05 00:36:00,61.5,60.9,30.12,WSW,250,2.3,3.5,98,0.00,BKN,,0.00,WeatherDisplay:10.37,2013-08-05 05:36:00,
2013-08-05 00:41:00,61.5,60.9,30.11,SE,132,3.0,5.8,98,0.00,BKN,,0.00,WeatherDisplay:10.37,2013-08-05 05:41:00,
2013-08-05 00:47:00,61.3,61.0,30.11,SW,220,2.4,4.6,99,0.00,BKN,,0.00,WeatherDisplay:10.37,2013-08-05 05:47:00,
2013-08-05 00:51:00,61.1,60.8,30.11,South,181,0.0,0.0,99,0.00,BKN,,0.00,WeatherDisplay:10.37,2013-08-05 05:51:00,
2013-08-05 00:57:00,60.9,60.9,30.11,ENE,72,3.8,8.1,100,0.00,BKN,,0.00,WeatherDisplay:10.37,2013-08-05 05:57:00,
2013-08-05 01:01:00,60.8,60.8,30.11,SSE,158,2.1,6.9,100,0.00,OVC,,0.00,WeatherDisplay:10.37,2013-08-05 06:01:00,
2013-08-05 01:07:00,60.5,60.5,30.11,WSW,242,2.3,4.6,100,0.00,OVC,,0.00,WeatherDisplay:10.37,2013-08-05 06:07:00,
2013-08-05 01:12:00,60.6,60.6,30.10,East,88,0.6,2.3,100,0.00,OVC,,0.00,WeatherDisplay:10.37,2013-08-05 06:12:00,
2013-08-05 01:17:00,60.3,60.3,30.10,ESE,108,2.0,3.5,100,0.00,OVC,,0.00,WeatherDisplay:10.37,2013-08-05 06:17:00,
2013-08-05 01:22:00,60.2,60.2,30.10,South,171,3.4,5.8,100,0.00,OVC,,0.00,WeatherDisplay:10.37,2013-08-05 06:22:00,
2013-08-05 01:27:00,60.0,60.0,30.10,South,172,1.6,3.5,100,0.00,OVC,,0.00,WeatherDisplay:10.37,2013-08-05 06:27:00,
2013-08-05 01:32:00,60.4,60.4,30.10,South,175,2.6,5.8,100,0.00,OVC,,0.00,WeatherDisplay:10.37,2013-08-05 06:32:00,
2013-08-05 01:37:00,60.1,60.1,30.09,SSW,211,0.6,3.5,100,0.00,OVC,,0.00,WeatherDisplay:10.37,2013-08-05 06:37:00,
2013-08-05 01:42:00,60.1,60.1,30.09,SSE,153,0.1,3.5,100,0.00,OVC,,0.00,WeatherDisplay:10.37,2013-08-05 06:42:00,
2013-08-05 01:47:00,60.1,60.1,30.10,SSE,167,2.5,5.8,100,0.00,OVC,,0.00,WeatherDisplay:10.37,2013-08-05 06:47:00,
2013-08-05 01:52:00,60.0,59.7,30.09,SSE,148,2.7,4.6,99,0.00,OVC,,0.00,WeatherDisplay:10.37,2013-08-05 06:52:00,
2013-08-05 01:57:00,60.0,59.7,30.09,SSE,153,2.8,4.6,99,0.00,OVC,,0.00,WeatherDisplay:10.37,2013-08-05 06:57:00,
2013-08-05 02:02:00,59.9,59.6,30.09,ENE,76,2.9,3.7,99,0.00,CLR,,0.00,WeatherDisplay:10.37,2013-08-05 07:02:00,
2013-08-05 02:07:00,59.8,59.2,30.09,WSW,247,3.1,4.6,98,0.00,CLR,,0.00,WeatherDisplay:10.37,2013-08-05 07:07:00,
2013-08-05 02:12:00,59.7,59.1,30.08,SSE,153,3.3,5.5,98,0.00,CLR,,0.00,WeatherDisplay:10.37,2013-08-05 07:12:00,
2013-08-05 02:17:00,59.8,59.2,30.08,ESE,117,1.8,4.6,98,0.00,CLR,,0.00,WeatherDisplay:10.37,2013-08-05 07:17:00,
2013-08-05 02:22:00,59.7,58.8,30.08,SE,132,2.3,4.6,97,0.00,CLR,,0.00,WeatherDisplay:10.37,2013-08-05 07:22:00,
2013-08-05 02:27:00,59.7,58.8,30.08,SSE,160,0.1,2.3,97,0.00,CLR,,0.00,WeatherDisplay:10.37,2013-08-05 07:27:00,
2013-08-05 02:32:00,59.7,58.8,30.08,East,85,1.6,4.6,97,0.00,CLR,,0.00,WeatherDisplay:10.37,2013-08-05 07:32:00,
2013-08-05 02:37:00,59.7,58.8,30.08,SSE,156,2.2,5.8,97,0.00,CLR,,0.00,WeatherDisplay:10.37,2013-08-05 07:37:00,
2013-08-05 02:42:00,59.7,58.6,30.08,SSW,205,0.0,3.5,96,0.00,CLR,,0.00,WeatherDisplay:10.37,2013-08-05 07:42:00,
2013-08-05 02:47:00,59.7,58.6,30.08,SSE,147,2.2,6.9,96,0.00,CLR,,0.00,WeatherDisplay:10.37,2013-08-05 07:47:00,
2013-08-05 02:52:00,59.5,58.4,30.07,SE,140,0.3,5.8,96,0.00,CLR,,0.00,WeatherDisplay:10.37,2013-08-05 07:52:00,
2013-08-05 02:57:00,59.5,58.6,30.07,ESE,115,0.9,3.5,97,0.00,CLR,,0.00,WeatherDisplay:10.37,2013-08-05 07:57:00,
2013-08-05 03:02:00,59.5,58.6,30.06,SE,137,0.0,0.0,97,0.00,CLR,,0.00,WeatherDisplay:10.37,2013-08-05 08:02:00,
2013-08-05 03:07:00,59.3,58.4,30.07,ESE,109,0.5,2.3,97,0.00,CLR,,0.00,WeatherDisplay:10.37,2013-08-05 08:07:00,
2013-08-05 03:12:00,59.2,58.6,30.06,SSE,160,0.5,4.6,98,0.00,CLR,,0.00,WeatherDisplay:10.37,2013-08-05 08:12:00,
2013-08-05 03:17:00,59.1,58.5,30.07,ESE,105,0.4,1.2,98,0.00,CLR,,0.00,WeatherDisplay:10.37,2013-08-05 08:17:00,
2013-08-05 03:22:00,59.1,58.8,30.06,SSE,153,1.2,1.9,99,0.00,CLR,,0.00,WeatherDisplay:10.37,2013-08-05 08:22:00,
2013-08-05 03:27:00,59.0,58.7,30.07,SSE,154,4.0,4.6,99,0.00,CLR,,0.00,WeatherDisplay:10.37,2013-08-05 08:27:00,
2013-08-05 03:33:00,59.1,58.8,30.06,SSW,204,2.5,4.6,99,0.00,CLR,,0.00,WeatherDisplay:10.37,2013-08-05 08:33:00,
2013-08-05 03:38:00,59.1,58.8,30.06,SSW,195,1.9,6.9,99,0.00,CLR,,0.00,WeatherDisplay:10.37,2013-08-05 08:38:00,
2013-08-05 03:42:00,59.0,58.7,30.06,SSE,164,0.4,2.0,99,0.00,CLR,,0.00,WeatherDisplay:10.37,2013-08-05 08:42:00,
2013-08-05 03:48:00,58.9,58.9,30.06,ESE,117,2.5,3.5,100,0.00,CLR,,0.00,WeatherDisplay:10.37,2013-08-05 08:48:00,
2013-08-05 03:53:00,58.8,58.8,30.06,South,187,4.0,6.9,100,0.00,CLR,,0.00,WeatherDisplay:10.37,2013-08-05 08:53:00,
2013-08-05 03:58:00,58.7,58.7,30.06,SSW,209,1.4,3.5,100,0.00,CLR,,0.00,WeatherDisplay:10.37,2013-08-05 08:58:00,
2013-08-05 04:03:00,58.7,58.7,30.07,SW,223,2.8,5.8,100,0.00,FEW,,0.00,WeatherDisplay:10.37,2013-08-05 09:03:00,
2013-08-05 04:09:00,58.7,58.7,30.06,South,171,2.2,5.8,100,0.00,FEW,,0.00,WeatherDisplay:10.37,2013-08-05 09:09:00,
2013-08-05 04:14:00,58.5,58.5,30.07,SSE,156,1.4,3.5,100,0.00,FEW,,0.00,WeatherDisplay:10.37,2013-08-05 09:14:00,
2013-08-05 04:19:00,58.4,58.4,30.07,South,176,0.0,7.0,100,0.00,FEW,FEW,0.00,WeatherDisplay:10.37,2013-08-05 09:19:00,
2013-08-05 04:25:00,58.5,58.5,30.06,SSE,167,0.0,4.0,100,0.00,FEW,FEW,0.00,WeatherDisplay:10.37,2013-08-05 09:25:00,
2013-08-05 04:30:00,58.3,58.3,30.06,SSE,148,0.0,0.0,100,0.00,FEW,FEW,0.00,WeatherDisplay:10.37,2013-08-05 09:30:00,
2013-08-05 04:35:00,58.4,58.4,30.06,WSW,237,2.5,4.6,100,0.00,FEW,,0.00,WeatherDisplay:10.37,2013-08-05 09:35:00,
2013-08-05 04:40:00,58.3,58.3,30.06,SSE,157,1.1,3.5,100,0.00,FEW,,0.00,WeatherDisplay:10.37,2013-08-05 09:40:00,
2013-08-05 04:45:00,58.3,58.3,30.06,SSE,156,1.1,3.5,100,0.00,FEW,,0.00,WeatherDisplay:10.37,2013-08-05 09:45:00,
2013-08-05 04:51:00,58.4,58.4,30.06,ENE,76,1.2,4.6,100,0.00,FEW,,0.00,WeatherDisplay:10.37,2013-08-05 09:51:00,
2013-08-05 04:56:00,58.2,58.2,30.06,South,180,1.2,2.5,100,0.00,FEW,,0.00,WeatherDisplay:10.37,2013-08-05 09:56:00,
2013-08-05 05:01:00,58.2,58.2,30.05,South,170,3.1,5.8,100,0.00,FEW,,0.00,WeatherDisplay:10.37,2013-08-05 10:01:00,
2013-08-05 05:06:00,58.3,58.3,30.05,South,170,2.9,4.6,100,0.00,CLR,,0.00,WeatherDisplay:10.37,2013-08-05 10:06:00,
2013-08-05 05:12:00,58.2,58.2,30.05,South,188,2.8,7.8,100,0.00,CLR,,0.00,WeatherDisplay:10.37,2013-08-05 10:12:00,
2013-08-05 05:17:00,58.3,58.3,30.05,South,191,2.1,3.5,100,0.00,CLR,,0.00,WeatherDisplay:10.37,2013-08-05 10:17:00,
2013-08-05 05:23:00,58.3,58.3,30.06,West,264,2.4,4.6,100,0.00,CLR,,0.00,WeatherDisplay:10.37,2013-08-05 10:23:00,
2013-08-05 05:28:00,58.4,58.4,30.05,South,175,0.1,5.6,100,0.00,CLR,,0.00,WeatherDisplay:10.37,2013-08-05 10:28:00,
2013-08-05 05:33:00,58.4,58.4,30.05,SW,215,2.4,6.9,100,0.00,CLR,,0.00,WeatherDisplay:10.37,2013-08-05 10:33:00,
2013-08-05 05:38:00,58.4,58.4,30.05,South,188,0.7,3.5,100,0.00,CLR,,0.00,WeatherDisplay:10.37,2013-08-05 10:38:00,
2013-08-05 05:43:00,58.4,58.4,30.05,East,86,0.5,2.3,100,0.00,CLR,,0.00,WeatherDisplay:10.37,2013-08-05 10:43:00,
2013-08-05 05:49:00,58.7,58.7,30.05,South,181,3.2,4.2,100,0.00,CLR,,0.00,WeatherDisplay:10.37,2013-08-05 10:49:00,
2013-08-05 05:55:00,58.5,58.5,30.05,South,179,2.0,7.0,100,0.00,CLR,CLR,0.00,WeatherDisplay:10.37,2013-08-05 10:55:00,
2013-08-05 06:00:00,58.6,58.6,30.05,SSW,194,5.0,9.0,100,0.00,CLR,CLR,0.00,WeatherDisplay:10.37,2013-08-05 11:00:00,
2013-08-05 06:05:00,58.6,58.6,30.06,South,180,2.0,5.0,100,0.00,CLR,CLR,0.00,WeatherDisplay:10.37,2013-08-05 11:05:00,
2013-08-05 06:10:00,58.6,58.6,30.06,SSE,168,1.0,7.0,100,0.00,CLR,CLR,0.00,WeatherDisplay:10.37,2013-08-05 11:10:00,
2013-08-05 06:15:00,58.5,58.5,30.06,WSW,256,2.9,4.6,100,0.00,CLR,,0.00,WeatherDisplay:10.37,2013-08-05 11:15:00,
2013-08-05 06:20:00,58.6,58.6,30.06,SW,229,1.7,4.6,100,0.00,CLR,,0.00,WeatherDisplay:10.37,2013-08-05 11:20:00,
2013-08-05 06:25:00,58.5,58.5,30.06,SE,130,0.5,2.3,100,0.00,CLR,,0.00,WeatherDisplay:10.37,2013-08-05 11:25:00,
2013-08-05 06:30:00,58.7,58.7,30.07,South,189,1.0,2.9,100,0.00,CLR,,0.00,WeatherDisplay:10.37,2013-08-05 11:30:00,
2013-08-05 06:35:00,58.5,58.5,30.07,WNW,283,0.0,0.0,100,0.00,CLR,,0.00,WeatherDisplay:10.37,2013-08-05 11:35:00,
2013-08-05 06:41:00,58.6,58.6,30.07,WNW,283,0.0,0.0,100,0.00,CLR,,0.00,WeatherDisplay:10.37,2013-08-05 11:41:00,
2013-08-05 06:46:00,58.6,58.6,30.07,South,175,1.5,3.5,100,0.00,CLR,,0.00,WeatherDisplay:10.37,2013-08-05 11:46:00,
2013-08-05 06:52:00,58.6,58.6,30.08,SSW,198,1.1,2.7,100,0.00,CLR,,0.00,WeatherDisplay:10.37,2013-08-05 11:52:00,
2013-08-05 06:57:00,58.5,58.5,30.07,SSW,213,0.0,0.0,100,0.00,CLR,,0.00,WeatherDisplay:10.37,2013-08-05 11:57:00,
2013-08-05 07:02:00,58.4,58.4,30.08,SW,219,0.0,0.0,100,0.00,FEW,,0.00,WeatherDisplay:10.37,2013-08-05 12:02:00,
2013-08-05 07:08:00,58.5,58.5,30.08,SW,219,0.0,0.0,100,0.00,FEW,,0.00,WeatherDisplay:10.37,2013-08-05 12:08:00,
2013-08-05 07:15:00,58.2,58.2,30.08,SW,219,0.0,0.0,100,0.00,FEW,,0.00,WeatherDisplay:10.37,2013-08-05 12:15:00,
2013-08-05 07:20:00,58.2,58.2,30.08,SW,219,0.0,0.0,100,0.00,FEW,,0.00,WeatherDisplay:10.37,2013-08-05 12:20:00,
2013-08-05 07:25:00,58.2,58.2,30.08,SW,219,0.0,0.0,100,0.00,FEW,,0.00,WeatherDisplay:10.37,2013-08-05 12:25:00,
2013-08-05 07:30:00,58.4,58.4,30.08,SW,219,0.0,0.0,100,0.00,FEW,,0.00,WeatherDisplay:10.37,2013-08-05 12:30:00,
2013-08-05 07:35:00,58.2,58.2,30.08,SE,126,1.9,3.5,100,0.00,FEW,,0.00,WeatherDisplay:10.37,2013-08-05 12:35:00,
2013-08-05 07:40:00,58.2,58.2,30.08,SSW,205,1.5,2.3,100,0.00,FEW,,0.00,WeatherDisplay:10.37,2013-08-05 12:40:00,
2013-08-05 07:45:00,58.2,58.2,30.08,South,172,1.1,2.3,100,0.00,FEW,,0.00,WeatherDisplay:10.37,2013-08-05 12:45:00,
2013-08-05 07:50:00,58.2,58.2,30.07,SSE,153,0.0,0.0,100,0.00,FEW,,0.00,WeatherDisplay:10.37,2013-08-05 12:50:00,
2013-08-05 07:56:00,58.3,58.3,30.07,SSW,194,0.0,0.0,100,0.00,FEW,,0.00,WeatherDisplay:10.37,2013-08-05 12:56:00,
2013-08-05 08:01:00,58.4,58.4,30.07,SSW,194,0.0,0.0,100,0.00,-RA,,0.00,WeatherDisplay:10.37,2013-08-05 13:01:00,
2013-08-05 08:07:00,58.4,58.4,30.07,SSW,194,0.0,0.0,100,0.00,-RA,,0.00,WeatherDisplay:10.37,2013-08-05 13:07:00,
2013-08-05 08:12:00,58.4,58.4,30.07,SSW,194,0.0,0.0,100,0.00,-RA,,0.00,WeatherDisplay:10.37,2013-08-05 13:12:00,
2013-08-05 08:16:00,58.5,58.5,30.07,SSW,194,0.0,0.0,100,0.00,-RA,,0.00,WeatherDisplay:10.37,2013-08-05 13:16:00,
2013-08-05 08:21:00,58.5,58.5,30.07,SSW,194,0.0,0.0,100,0.00,-RA,,0.00,WeatherDisplay:10.37,2013-08-05 13:21:00,
2013-08-05 08:27:00,58.7,58.7,30.07,SSW,194,0.0,0.0,100,0.00,-RA,,0.00,WeatherDisplay:10.37,2013-08-05 13:27:00,
2013-08-05 08:32:00,58.8,58.8,30.07,SSW,194,0.0,0.0,100,0.00,-RA,,0.00,WeatherDisplay:10.37,2013-08-05 13:32:00,
2013-08-05 08:37:00,58.8,58.8,30.07,SSW,196,0.0,0.0,100,0.01,-RA,,0.01,WeatherDisplay:10.37,2013-08-05 13:37:00,
2013-08-05 08:43:00,58.9,58.9,30.06,SSW,198,2.2,4.6,100,0.01,-RA,,0.01,WeatherDisplay:10.37,2013-08-05 13:43:00,
2013-08-05 08:48:00,58.9,58.9,30.06,SE,130,2.3,2.3,100,0.01,-RA,,0.02,WeatherDisplay:10.37,2013-08-05 13:48:00,
2013-08-05 08:53:00,58.9,58.9,30.05,South,180,2.0,6.7,100,0.02,-RA,,0.02,WeatherDisplay:10.37,2013-08-05 13:53:00,
2013-08-05 08:59:00,58.7,58.7,30.03,East,89,4.4,6.9,100,0.02,-RA,,0.02,WeatherDisplay:10.37,2013-08-05 13:59:00,
2013-08-05 09:04:00,58.3,58.3,30.02,SSW,199,3.9,5.8,100,0.03,-RA,,0.03,WeatherDisplay:10.37,2013-08-05 14:04:00,
2013-08-05 09:09:00,58.6,58.6,30.00,South,185,1.9,4.7,100,0.03,-RA,,0.03,WeatherDisplay:10.37,2013-08-05 14:09:00,
2013-08-05 09:14:00,58.7,58.7,30.00,South,172,2.4,4.6,100,0.03,-RA,,0.03,WeatherDisplay:10.37,2013-08-05 14:14:00,
2013-08-05 09:19:00,59.0,59.0,29.99,SSE,164,3.2,5.2,100,0.03,-RA,,0.03,WeatherDisplay:10.37,2013-08-05 14:19:00,
2013-08-05 09:24:00,59.2,59.2,29.98,SSE,156,1.4,3.5,100,0.03,-RA,,0.03,WeatherDisplay:10.37,2013-08-05 14:24:00,
2013-08-05 09:29:00,59.5,59.5,29.98,SSW,195,2.3,5.8,100,0.03,-RA,,0.03,WeatherDisplay:10.37,2013-08-05 14:29:00,
2013-08-05 09:34:00,59.6,59.6,29.98,SSE,163,3.7,5.8,100,0.03,-RA,,0.03,WeatherDisplay:10.37,2013-08-05 14:34:00,
2013-08-05 09:39:00,59.8,59.8,29.98,SSE,147,2.8,4.6,100,0.02,-RA,,0.03,WeatherDisplay:10.37,2013-08-05 14:39:00,
2013-08-05 09:44:00,60.0,60.0,29.97,SE,130,4.1,6.9,100,0.02,-RA,,0.03,WeatherDisplay:10.37,2013-08-05 14:44:00,
2013-08-05 09:50:00,60.5,60.5,29.96,South,170,3.0,9.0,100,0.00,-RA,-RA,0.03,WeatherDisplay:10.37,2013-08-05 14:50:00,
2013-08-05 09:54:00,61.2,61.2,29.96,South,184,3.0,9.0,100,0.00,-RA,-RA,0.03,WeatherDisplay:10.37,2013-08-05 14:54:00,
2013-08-05 10:00:00,62.1,62.1,29.96,SSW,213,0.6,3.5,100,0.01,-RA,,0.03,WeatherDisplay:10.37,2013-08-05 15:00:00,
2013-08-05 10:04:00,62.6,62.6,29.96,South,177,2.5,5.8,100,0.00,-RA,,0.03,WeatherDisplay:10.37,2013-08-05 15:04:00,
2013-08-05 10:10:00,63.0,63.0,29.96,SW,229,4.2,6.9,100,0.00,-RA,,0.03,WeatherDisplay:10.37,2013-08-05 15:10:00,
2013-08-05 10:15:00,63.5,63.5,29.97,WSW,242,5.6,10.4,100,0.00,-RA,,0.03,WeatherDisplay:10.37,2013-08-05 15:15:00,
2013-08-05 10:20:00,64.1,64.1,29.97,SW,230,5.3,8.1,100,0.00,-RA,,0.03,WeatherDisplay:10.37,2013-08-05 15:20:00,
2013-08-05 10:25:00,64.9,64.9,29.97,South,180,5.1,10.4,100,0.00,-RA,,0.03,WeatherDisplay:10.37,2013-08-05 15:25:00,
2013-08-05 10:30:00,65.7,65.4,29.98,South,180,3.1,6.9,99,0.00,-RA,,0.03,WeatherDisplay:10.37,2013-08-05 15:30:00,
2013-08-05 10:36:00,66.4,65.5,29.97,SE,146,2.4,2.7,97,0.00,-RA,,0.03,WeatherDisplay:10.37,2013-08-05 15:36:00,
2013-08-05 10:42:00,67.3,65.2,29.97,West,267,5.5,11.5,93,0.00,-RA,,0.03,WeatherDisplay:10.37,2013-08-05 15:42:00,
2013-08-05 10:46:00,67.7,65.0,29.97,West,261,3.9,8.1,91,0.00,-RA,,0.03,WeatherDisplay:10.37,2013-08-05 15:46:00,
2013-08-05 10:52:00,67.7,64.0,29.96,ESE,102,4.9,9.2,88,0.00,-RA,,0.03,WeatherDisplay:10.37,2013-08-05 15:52:00,
2013-08-05 10:57:00,67.8,63.8,29.96,South,189,3.5,5.8,87,0.00,-RA,,0.03,WeatherDisplay:10.37,2013-08-05 15:57:00,
2013-08-05 11:03:00,68.3,63.6,29.96,WSW,242,1.4,6.9,85,0.00,BKN,,0.03,WeatherDisplay:10.37,2013-08-05 16:03:00,
2013-08-05 11:09:00,68.8,63.4,29.96,SSW,211,3.6,5.8,83,0.00,BKN,,0.03,WeatherDisplay:10.37,2013-08-05 16:09:00,
2013-08-05 11:14:00,69.2,62.8,29.96,WSW,242,5.0,6.9,80,0.00,BKN,,0.03,WeatherDisplay:10.37,2013-08-05 16:14:00,
2013-08-05 11:20:00,69.4,62.6,29.96,SSW,206,6.0,9.0,79,0.00,BKN,BKN,0.03,WeatherDisplay:10.37,2013-08-05 16:20:00,
2013-08-05 11:25:00,69.5,62.3,29.96,SSW,208,7.0,11.0,78,0.00,BKN,BKN,0.03,WeatherDisplay:10.37,2013-08-05 16:25:00,
2013-08-05 11:30:00,69.7,61.8,29.96,SW,232,8.2,15.5,76,0.00,BKN,,0.03,WeatherDisplay:10.37,2013-08-05 16:30:00,
2013-08-05 11:35:00,70.0,62.4,29.96,SSW,212,5.0,15.0,77,0.00,BKN,BKN,0.03,WeatherDisplay:10.37,2013-08-05 16:35:00,
2013-08-05 11:40:00,69.7,62.2,29.96,SSW,213,7.0,11.0,77,0.00,BKN,BKN,0.03,WeatherDisplay:10.37,2013-08-05 16:40:00,
2013-08-05 11:44:00,69.5,61.6,29.97,SSW,211,8.0,18.0,76,0.00,BKN,BKN,0.03,WeatherDisplay:10.37,2013-08-05 16:44:00,
2013-08-05 11:50:00,68.9,61.4,29.97,South,174,7.9,15.0,77,0.00,BKN,,0.03,WeatherDisplay:10.37,2013-08-05 16:50:00,
2013-08-05 11:55:00,68.7,62.3,29.97,SW,216,6.0,13.0,80,0.00,BKN,BKN,0.03,WeatherDisplay:10.37,2013-08-05 16:55:00,
2013-08-05 12:00:00,69.1,63.4,29.97,SW,223,6.4,12.7,82,0.00,BKN,,0.03,WeatherDisplay:10.37,2013-08-05 17:00:00,
2013-08-05 12:04:00,69.0,62.2,29.97,SW,214,7.0,14.0,79,0.00,SCT,SCT,0.03,WeatherDisplay:10.37,2013-08-05 17:04:00,
2013-08-05 12:10:00,68.8,62.4,29.97,SSW,211,6.7,11.5,80,0.00,SCT,,0.03,WeatherDisplay:10.37,2013-08-05 17:10:00,
2013-08-05 12:15:00,69.0,63.3,29.97,West,266,4.2,6.9,82,0.00,SCT,,0.03,WeatherDisplay:10.37,2013-08-05 17:15:00,
2013-08-05 12:20:00,69.3,62.5,29.97,SSW,213,7.5,12.7,79,0.00,SCT,,0.03,WeatherDisplay:10.37,2013-08-05 17:20:00,
2013-08-05 12:25:00,69.5,62.3,29.97,West,259,4.6,11.5,78,0.00,SCT,,0.03,WeatherDisplay:10.37,2013-08-05 17:25:00,
2013-08-05 12:30:00,69.4,62.2,29.97,South,184,6.4,8.1,78,0.00,SCT,,0.03,WeatherDisplay:10.37,2013-08-05 17:30:00,
2013-08-05 12:35:00,69.4,61.5,29.96,East,99,7.3,11.5,76,0.00,SCT,,0.03,WeatherDisplay:10.37,2013-08-05 17:35:00,
2013-08-05 12:41:00,69.9,62.4,29.96,SSE,154,0.8,3.5,77,0.00,SCT,,0.03,WeatherDisplay:10.37,2013-08-05 17:41:00,
2013-08-05 12:47:00,70.9,61.8,29.96,South,191,6.4,11.5,73,0.00,SCT,,0.03,WeatherDisplay:10.37,2013-08-05 17:47:00,
2013-08-05 12:52:00,71.3,61.0,29.96,SW,233,4.0,6.9,70,0.00,SCT,,0.03,WeatherDisplay:10.37,2013-08-05 17:52:00,
2013-08-05 12:57:00,71.2,60.1,29.96,SW,223,7.5,10.4,68,0.00,SCT,,0.03,WeatherDisplay:10.37,2013-08-05 17:57:00,
2013-08-05 13:02:00,71.3,60.2,29.95,West,261,4.4,10.4,68,0.00,BKN,,0.03,WeatherDisplay:10.37,2013-08-05 18:02:00,
2013-08-05 13:07:00,70.7,59.6,29.96,South,177,7.4,9.2,68,0.00,BKN,,0.03,WeatherDisplay:10.37,2013-08-05 18:07:00,
2013-08-05 13:12:00,70.7,60.4,29.95,SSE,154,6.9,9.2,70,0.00,BKN,,0.03,WeatherDisplay:10.37,2013-08-05 18:12:00,
2013-08-05 13:17:00,70.4,60.1,29.95,SSE,165,3.0,8.1,70,0.00,BKN,,0.03,WeatherDisplay:10.37,2013-08-05 18:17:00,
2013-08-05 13:22:00,70.5,60.2,29.95,SSE,156,5.6,8.1,70,0.00,BKN,,0.03,WeatherDisplay:10.37,2013-08-05 18:22:00,
2013-08-05 13:28:00,69.7,59.5,29.95,WSW,257,4.5,12.7,70,0.00,BKN,,0.03,WeatherDisplay:10.37,2013-08-05 18:28:00,
2013-08-05 13:33:00,69.8,60.4,29.95,ESE,102,2.8,5.1,72,0.00,BKN,,0.03,WeatherDisplay:10.37,2013-08-05 18:33:00,
2013-08-05 13:38:00,69.9,60.5,29.95,SSW,196,4.3,5.8,72,0.00,BKN,,0.03,WeatherDisplay:10.37,2013-08-05 18:38:00,
2013-08-05 13:43:00,70.3,60.4,29.95,SW,230,2.3,8.1,71,0.00,BKN,,0.03,WeatherDisplay:10.37,2013-08-05 18:43:00,
2013-08-05 13:49:00,70.9,61.0,29.95,WSW,256,3.1,4.6,71,0.00,BKN,,0.03,WeatherDisplay:10.37,2013-08-05 18:49:00,
2013-08-05 13:54:00,70.7,60.0,29.94,South,174,5.5,9.2,69,0.00,BKN,,0.03,WeatherDisplay:10.37,2013-08-05 18:54:00,
2013-08-05 13:59:00,70.5,59.8,29.94,SW,218,4.3,5.8,69,0.00,BKN,,0.03,WeatherDisplay:10.37,2013-08-05 18:59:00,
2013-08-05 14:04:00,70.5,60.2,29.94,South,189,3.6,6.9,70,0.00,BKN,,0.03,WeatherDisplay:10.37,2013-08-05 19:04:00,
2013-08-05 14:09:00,70.7,60.8,29.94,SW,233,2.1,4.6,71,0.00,BKN,,0.03,WeatherDisplay:10.37,2013-08-05 19:09:00,
2013-08-05 14:15:00,70.6,61.1,29.94,WSW,250,2.0,4.6,72,0.00,BKN,,0.03,WeatherDisplay:10.37,2013-08-05 19:15:00,
2013-08-05 14:20:00,70.3,60.9,29.94,SSW,195,5.0,9.0,72,0.00,BKN,BKN,0.03,WeatherDisplay:10.37,2013-08-05 19:20:00,
2013-08-05 14:25:00,69.9,60.9,29.94,South,181,2.0,8.0,73,0.00,BKN,BKN,0.03,WeatherDisplay:10.37,2013-08-05 19:25:00,
2013-08-05 14:30:00,69.5,60.9,29.94,South,190,5.0,8.0,74,0.00,BKN,BKN,0.03,WeatherDisplay:10.37,2013-08-05 19:30:00,
2013-08-05 14:35:00,69.4,61.5,29.94,South,187,3.0,7.0,76,0.00,BKN,BKN,0.03,WeatherDisplay:10.37,2013-08-05 19:35:00,
2013-08-05 14:40:00,69.4,62.2,29.93,SSW,202,3.4,5.5,78,0.00,BKN,,0.03,WeatherDisplay:10.37,2013-08-05 19:40:00,
2013-08-05 14:45:00,69.4,62.2,29.93,SW,230,2.9,4.6,78,0.00,BKN,,0.03,WeatherDisplay:10.37,2013-08-05 19:45:00,
2013-08-05 14:50:00,69.4,62.2,29.93,South,181,1.0,5.8,78,0.00,BKN,,0.03,WeatherDisplay:10.37,2013-08-05 19:50:00,
2013-08-05 14:55:00,69.3,62.5,29.93,SW,235,2.0,4.4,79,0.00,BKN,,0.03,WeatherDisplay:10.37,2013-08-05 19:55:00,
2013-08-05 15:00:00,69.3,62.5,29.93,SSW,207,3.0,7.0,79,0.00,BKN,BKN,0.03,WeatherDisplay:10.37,2013-08-05 20:00:00,
2013-08-05 15:05:00,69.2,62.0,29.94,SW,232,5.0,9.0,78,0.00,BKN,BKN,0.03,WeatherDisplay:10.37,2013-08-05 20:05:00,
2013-08-05 15:10:00,69.1,61.9,29.93,South,170,1.2,3.5,78,0.00,BKN,,0.03,WeatherDisplay:10.37,2013-08-05 20:10:00,
2013-08-05 15:15:00,68.9,62.1,29.93,SW,216,3.4,4.6,79,0.00,BKN,,0.03,WeatherDisplay:10.37,2013-08-05 20:15:00,
2013-08-05 15:20:00,68.8,63.1,29.93,SSW,212,3.0,7.0,82,0.00,BKN,BKN,0.03,WeatherDisplay:10.37,2013-08-05 20:20:00,
2013-08-05 15:25:00,68.4,63.1,29.94,SW,222,3.0,7.0,83,0.00,BKN,BKN,0.03,WeatherDisplay:10.37,2013-08-05 20:25:00,
2013-08-05 15:30:00,68.0,63.7,29.94,SSW,204,4.4,4.6,86,0.00,BKN,,0.03,WeatherDisplay:10.37,2013-08-05 20:30:00,
2013-08-05 15:35:00,67.9,64.2,29.94,South,172,2.2,5.8,88,0.00,BKN,,0.03,WeatherDisplay:10.37,2013-08-05 20:35:00,
2013-08-05 15:40:00,67.4,64.4,29.93,South,189,3.2,5.8,90,0.00,BKN,,0.03,WeatherDisplay:10.37,2013-08-05 20:40:00,
2013-08-05 15:45:00,67.3,64.6,29.92,SSW,201,0.0,5.0,91,0.00,BKN,BKN,0.03,WeatherDisplay:10.37,2013-08-05 20:45:00,
2013-08-05 15:50:00,67.4,65.0,29.92,SE,129,0.7,2.3,92,0.00,BKN,,0.03,WeatherDisplay:10.37,2013-08-05 20:50:00,
2013-08-05 15:55:00,67.3,64.9,29.92,SSW,195,0.6,2.3,92,0.00,BKN,,0.03,WeatherDisplay:10.37,2013-08-05 20:55:00,
2013-08-05 16:00:00,67.5,65.4,29.91,South,182,1.0,3.0,93,0.00,BKN,BKN,0.03,WeatherDisplay:10.37,2013-08-05 21:00:00,
2013-08-05 16:05:00,67.6,65.2,29.91,South,186,2.0,7.0,92,0.00,BKN,BKN,0.03,WeatherDisplay:10.37,2013-08-05 21:05:00,
2013-08-05 16:09:00,67.9,65.2,29.91,ENE,76,1.6,4.6,91,0.00,BKN,,0.03,WeatherDisplay:10.37,2013-08-05 21:09:00,
2013-08-05 16:15:00,68.0,65.0,29.91,ESE,119,3.3,5.8,90,0.00,BKN,,0.03,WeatherDisplay:10.37,2013-08-05 21:15:00,
2013-08-05 16:20:00,68.2,65.1,29.91,SSE,164,1.0,9.0,90,0.00,BKN,BKN,0.03,WeatherDisplay:10.37,2013-08-05 21:20:00,
2013-08-05 16:25:00,68.4,65.3,29.91,South,186,3.0,8.0,90,0.00,BKN,BKN,0.03,WeatherDisplay:10.37,2013-08-05 21:25:00,
2013-08-05 16:29:00,68.5,65.1,29.91,SSW,213,3.8,9.6,89,0.00,BKN,,0.03,WeatherDisplay:10.37,2013-08-05 21:29:00,
2013-08-05 16:34:00,68.4,65.4,29.91,SSE,158,1.9,4.6,90,0.00,BKN,,0.03,WeatherDisplay:10.37,2013-08-05 21:34:00,
2013-08-05 16:40:00,68.4,65.4,29.90,SSW,202,2.0,7.0,90,0.00,BKN,BKN,0.03,WeatherDisplay:10.37,2013-08-05 21:40:00,
2013-08-05 16:45:00,68.5,65.4,29.90,SSE,154,1.8,5.8,90,0.00,BKN,,0.03,WeatherDisplay:10.37,2013-08-05 21:45:00,
2013-08-05 16:50:00,68.5,65.4,29.90,WSW,240,1.4,3.5,90,0.00,BKN,,0.03,WeatherDisplay:10.37,2013-08-05 21:50:00,
2013-08-05 16:55:00,68.4,65.4,29.90,South,187,3.7,5.8,90,0.00,BKN,,0.03,WeatherDisplay:10.37,2013-08-05 21:55:00,
2013-08-05 17:00:00,68.3,65.3,29.89,WNW,288,1.5,5.8,90,0.00,BKN,,0.03,WeatherDisplay:10.37,2013-08-05 22:00:00,
2013-08-05 17:05:00,68.2,65.5,29.89,SSW,212,3.6,8.1,91,0.00,-RA,,0.03,WeatherDisplay:10.37,2013-08-05 22:05:00,
2013-08-05 17:11:00,68.3,65.6,29.89,SSE,164,2.9,6.1,91,0.00,-RA,,0.03,WeatherDisplay:10.37,2013-08-05 22:11:00,
2013-08-05 17:16:00,68.6,65.5,29.89,South,189,2.1,8.3,90,0.00,-RA,,0.03,WeatherDisplay:10.37,2013-08-05 22:16:00,
2013-08-05 17:21:00,68.4,65.0,29.88,SSE,153,3.2,6.9,89,0.00,-RA,,0.03,WeatherDisplay:10.37,2013-08-05 22:21:00,
2013-08-05 17:26:00,68.5,65.1,29.88,SSE,167,4.2,6.9,89,0.00,-RA,,0.03,WeatherDisplay:10.37,2013-08-05 22:26:00,
2013-08-05 17:31:00,68.4,65.0,29.88,SSE,157,3.9,9.2,89,0.00,-RA,,0.03,WeatherDisplay:10.37,2013-08-05 22:31:00,
2013-08-05 17:36:00,68.2,65.2,29.88,SSW,195,2.7,10.4,90,0.00,-RA,,0.03,WeatherDisplay:10.37,2013-08-05 22:36:00,
2013-08-05 17:42:00,68.0,65.3,29.88,SE,130,2.8,6.4,91,0.00,-RA,,0.03,WeatherDisplay:10.37,2013-08-05 22:42:00,
2013-08-05 17:47:00,67.9,65.2,29.88,South,174,3.4,5.8,91,0.00,-RA,,0.03,WeatherDisplay:10.37,2013-08-05 22:47:00,
2013-08-05 17:52:00,67.8,65.4,29.88,SE,130,1.6,3.5,92,0.00,-RA,,0.03,WeatherDisplay:10.37,2013-08-05 22:52:00,
2013-08-05 17:57:00,67.8,65.7,29.88,SSW,198,4.0,6.6,93,0.00,-RA,,0.03,WeatherDisplay:10.37,2013-08-05 22:57:00,
2013-08-05 18:02:00,67.7,65.6,29.88,WSW,254,1.3,4.6,93,0.00,OVC,,0.03,WeatherDisplay:10.37,2013-08-05 23:02:00,
2013-08-05 18:07:00,67.7,65.9,29.88,SSW,195,1.7,3.9,94,0.00,OVC,,0.03,WeatherDisplay:10.37,2013-08-05 23:07:00,
2013-08-05 18:12:00,67.6,65.8,29.88,SSW,209,4.8,6.9,94,0.00,OVC,,0.03,WeatherDisplay:10.37,2013-08-05 23:12:00,
2013-08-05 18:18:00,67.7,65.9,29.88,ESE,120,2.5,4.6,94,0.00,OVC,,0.03,WeatherDisplay:10.37,2013-08-05 23:18:00,
2013-08-05 18:23:00,67.7,66.2,29.88,WSW,243,1.2,4.2,95,0.00,OVC,,0.03,WeatherDisplay:10.37,2013-08-05 23:23:00,
2013-08-05 18:28:00,67.5,66.0,29.88,ENE,78,1.7,4.6,95,0.00,OVC,,0.03,WeatherDisplay:10.37,2013-08-05 23:28:00,
2013-08-05 18:33:00,67.5,66.3,29.88,WSW,240,3.3,4.6,96,0.00,OVC,,0.03,WeatherDisplay:10.37,2013-08-05 23:33:00,
2013-08-05 18:38:00,67.5,66.3,29.88,SSW,213,2.4,3.5,96,0.00,OVC,,0.03,WeatherDisplay:10.37,2013-08-05 23:38:00,
2013-08-05 18:44:00,67.8,66.6,29.88,SSE,167,2.6,4.6,96,0.00,OVC,,0.03,WeatherDisplay:10.37,2013-08-05 23:44:00,
2013-08-05 18:49:00,67.4,66.2,29.88,SSW,209,1.9,4.6,96,0.00,OVC,,0.03,WeatherDisplay:10.37,2013-08-05 23:49:00,
2013-08-05 18:55:00,67.5,66.6,29.88,ESE,116,0.5,2.3,97,0.00,OVC,,0.03,WeatherDisplay:10.37,2013-08-05 23:55:00,
2013-08-05 19:00:00,67.5,66.6,29.88,SW,225,1.7,2.3,97,0.00,OVC,,0.03,WeatherDisplay:10.37,2013-08-06 00:00:00,
2013-08-05 19:05:00,67.4,66.8,29.88,SE,136,0.0,1.8,98,0.00,BKN,,0.03,WeatherDisplay:10.37,2013-08-06 00:05:00,
2013-08-05 19:10:00,67.4,66.8,29.88,SSE,168,0.0,1.7,98,0.00,BKN,,0.03,WeatherDisplay:10.37,2013-08-06 00:10:00,
2013-08-05 19:15:00,67.2,66.9,29.88,SE,134,0.0,0.0,99,0.00,BKN,,0.03,WeatherDisplay:10.37,2013-08-06 00:15:00,
2013-08-05 19:20:00,67.1,67.1,29.88,SSW,205,1.8,3.5,100,0.00,BKN,,0.03,WeatherDisplay:10.37,2013-08-06 00:20:00,
2013-08-05 19:25:00,67.0,67.0,29.88,West,278,0.0,0.0,100,0.00,BKN,,0.03,WeatherDisplay:10.37,2013-08-06 00:25:00,
2013-08-05 19:30:00,66.8,66.8,29.88,South,177,1.6,1.6,100,0.00,BKN,,0.03,WeatherDisplay:10.37,2013-08-06 00:30:00,
2013-08-05 19:36:00,66.7,66.7,29.88,SSE,167,0.0,0.0,100,0.00,BKN,,0.03,WeatherDisplay:10.37,2013-08-06 00:36:00,
2013-08-05 19:41:00,66.6,66.6,29.88,SSE,151,0.0,1.2,100,0.00,BKN,,0.03,WeatherDisplay:10.37,2013-08-06 00:41:00,
2013-08-05 19:46:00,66.4,66.4,29.88,SE,134,0.0,1.2,100,0.00,BKN,,0.03,WeatherDisplay:10.37,2013-08-06 00:46:00,
2013-08-05 19:51:00,66.3,66.3,29.88,SSE,151,0.0,0.0,100,0.00,BKN,,0.03,WeatherDisplay:10.37,2013-08-06 00:51:00,
2013-08-05 19:56:00,66.2,66.2,29.88,SSE,168,0.6,2.3,100,0.00,BKN,,0.03,WeatherDisplay:10.37,2013-08-06 00:56:00,
2013-08-05 20:01:00,66.0,66.0,29.88,SSE,151,0.0,1.2,100,0.00,OVC,,0.03,WeatherDisplay:10.37,2013-08-06 01:01:00,
2013-08-05 20:07:00,66.0,66.0,29.88,SSE,151,0.0,0.0,100,0.00,OVC,,0.03,WeatherDisplay:10.37,2013-08-06 01:07:00,
2013-08-05 20:12:00,65.9,65.9,29.88,South,178,0.0,2.3,100,0.00,OVC,,0.03,WeatherDisplay:10.37,2013-08-06 01:12:00,
2013-08-05 20:18:00,65.8,65.8,29.88,South,170,0.0,0.0,100,0.00,OVC,,0.03,WeatherDisplay:10.37,2013-08-06 01:18:00,
2013-08-05 20:24:00,65.7,65.7,29.88,South,180,0.0,0.0,100,0.00,OVC,,0.03,WeatherDisplay:10.37,2013-08-06 01:24:00,
2013-08-05 20:29:00,65.6,65.6,29.88,SSW,212,0.0,2.3,100,0.00,OVC,,0.03,WeatherDisplay:10.37,2013-08-06 01:29:00,
2013-08-05 20:34:00,65.7,65.7,29.88,SE,144,0.7,2.5,100,0.00,OVC,,0.03,WeatherDisplay:10.37,2013-08-06 01:34:00,
2013-08-05 20:39:00,65.4,65.4,29.88,East,84,0.7,1.2,100,0.00,OVC,,0.03,WeatherDisplay:10.37,2013-08-06 01:39:00,
2013-08-05 20:45:00,65.5,65.5,29.88,SE,126,0.0,0.0,100,0.00,OVC,,0.03,WeatherDisplay:10.37,2013-08-06 01:45:00,
2013-08-05 20:50:00,65.4,65.4,29.88,SE,126,0.0,0.0,100,0.00,OVC,,0.03,WeatherDisplay:10.37,2013-08-06 01:50:00,
2013-08-05 20:55:00,65.3,65.3,29.88,SSE,157,0.0,0.0,100,0.00,OVC,,0.03,WeatherDisplay:10.37,2013-08-06 01:55:00,
2013-08-05 21:00:00,65.6,65.6,29.88,South,178,0.0,1.2,100,0.00,OVC,,0.03,WeatherDisplay:10.37,2013-08-06 02:00:00,
2013-08-05 21:05:00,65.6,65.6,29.88,SE,132,0.0,0.0,100,0.00,OVC,,0.03,WeatherDisplay:10.37,2013-08-06 02:05:00,
2013-08-05 21:10:00,65.5,65.5,29.88,ESE,113,0.8,2.3,100,0.00,OVC,,0.03,WeatherDisplay:10.37,2013-08-06 02:10:00,
2013-08-05 21:15:00,65.6,65.6,29.88,ESE,112,0.0,0.0,100,0.00,OVC,,0.03,WeatherDisplay:10.37,2013-08-06 02:15:00,
2013-08-05 21:20:00,65.4,65.4,29.88,SSE,148,0.1,5.8,100,0.00,OVC,,0.03,WeatherDisplay:10.37,2013-08-06 02:20:00,
2013-08-05 21:26:00,65.6,65.6,29.88,SSE,148,0.0,0.0,100,0.00,OVC,,0.03,WeatherDisplay:10.37,2013-08-06 02:26:00,
2013-08-05 21:31:00,65.7,65.7,29.88,SE,140,0.0,0.0,100,0.00,OVC,,0.03,WeatherDisplay:10.37,2013-08-06 02:31:00,
2013-08-05 21:36:00,65.6,65.6,29.89,ESE,117,0.2,1.2,100,0.00,OVC,,0.03,WeatherDisplay:10.37,2013-08-06 02:36:00,
2013-08-05 21:41:00,65.6,65.6,29.88,SSE,151,0.3,3.5,100,0.00,OVC,,0.03,WeatherDisplay:10.37,2013-08-06 02:41:00,
2013-08-05 21:47:00,65.5,65.5,29.88,South,187,2.9,4.6,100,0.01,RA,,0.04,WeatherDisplay:10.37,2013-08-06 02:47:00,
2013-08-05 21:52:00,65.6,65.6,29.88,SSW,204,0.0,0.0,100,0.01,RA,,0.04,WeatherDisplay:10.37,2013-08-06 02:52:00,
2013-08-05 21:57:00,65.5,65.5,29.88,ESE,120,0.0,1.2,100,0.01,OVC,,0.04,WeatherDisplay:10.37,2013-08-06 02:57:00,
2013-08-05 22:02:00,65.6,65.6,29.89,South,174,1.4,2.8,100,0.01,OVC,,0.04,WeatherDisplay:10.37,2013-08-06 03:02:00,
2013-08-05 22:07:00,65.6,65.6,29.89,South,184,2.0,2.3,100,0.01,OVC,,0.04,WeatherDisplay:10.37,2013-08-06 03:07:00,
2013-08-05 22:12:00,65.6,65.6,29.89,ESE,115,0.0,0.0,100,0.01,OVC,,0.04,WeatherDisplay:10.37,2013-08-06 03:12:00,
2013-08-05 22:18:00,65.5,65.5,29.89,South,191,2.1,5.8,100,0.01,OVC,,0.04,WeatherDisplay:10.37,2013-08-06 03:18:00,
2013-08-05 22:23:00,65.6,65.6,29.88,SSE,153,1.6,5.8,100,0.01,OVC,,0.04,WeatherDisplay:10.37,2013-08-06 03:23:00,
2013-08-05 22:29:00,65.3,65.3,29.88,South,185,2.5,5.8,100,0.01,OVC,,0.04,WeatherDisplay:10.37,2013-08-06 03:29:00,
2013-08-05 22:34:00,65.6,65.6,29.88,East,84,2.0,3.5,100,0.01,OVC,,0.04,WeatherDisplay:10.37,2013-08-06 03:34:00,
2013-08-05 22:39:00,65.5,65.5,29.88,WSW,252,0.5,3.5,100,0.01,OVC,,0.04,WeatherDisplay:10.37,2013-08-06 03:39:00,
2013-08-05 22:44:00,65.3,65.3,29.88,South,171,0.9,2.3,100,0.01,OVC,,0.04,WeatherDisplay:10.37,2013-08-06 03:44:00,
2013-08-05 22:49:00,65.5,65.5,29.88,South,171,0.0,0.0,100,0.00,OVC,,0.04,WeatherDisplay:10.37,2013-08-06 03:49:00,
2013-08-05 22:54:00,65.4,65.4,29.88,SSE,154,0.4,2.3,100,0.00,OVC,,0.04,WeatherDisplay:10.37,2013-08-06 03:54:00,
2013-08-05 22:59:00,65.3,65.3,29.88,SSW,196,0.4,2.3,100,0.00,OVC,,0.04,WeatherDisplay:10.37,2013-08-06 03:59:00,
2013-08-05 23:01:00,65.3,65.3,29.88,WSW,243,1.0,2.3,100,0.00,-RA,,0.04,WeatherDisplay:10.37,2013-08-06 04:01:00,
2013-08-05 23:06:00,65.3,65.3,29.88,South,189,0.0,2.3,100,0.00,-RA,,0.04,WeatherDisplay:10.37,2013-08-06 04:06:00,
2013-08-05 23:11:00,65.3,65.3,29.88,SE,141,0.0,1.2,100,0.00,-RA,,0.04,WeatherDisplay:10.37,2013-08-06 04:11:00,
2013-08-05 23:16:00,65.2,65.2,29.88,SE,141,0.0,0.0,100,0.00,-RA,,0.04,WeatherDisplay:10.37,2013-08-06 04:16:00,
2013-08-05 23:21:00,65.3,65.3,29.87,SE,141,0.0,0.0,100,0.00,-RA,,0.04,WeatherDisplay:10.37,2013-08-06 04:21:00,
2013-08-05 23:26:00,65.3,65.3,29.87,SW,233,0.3,1.2,100,0.00,-RA,,0.04,WeatherDisplay:10.37,2013-08-06 04:26:00,
2013-08-05 23:31:00,65.2,65.2,29.87,SSE,148,0.0,0.0,100,0.00,-RA,,0.04,WeatherDisplay:10.37,2013-08-06 04:31:00,
2013-08-05 23:36:00,65.2,65.2,29.87,SSE,148,0.0,0.0,100,0.00,-RA,,0.04,WeatherDisplay:10.37,2013-08-06 04:36:00,
2013-08-05 23:41:00,65.3,65.3,29.87,SSE,148,0.0,0.0,100,0.00,-RA,,0.04,WeatherDisplay:10.37,2013-08-06 04:41:00,
2013-08-05 23:46:00,65.5,65.5,29.87,SSE,163,0.0,0.0,100,0.00,-RA,,0.04,WeatherDisplay:10.37,2013-08-06 04:46:00,
2013-08-05 23:51:00,65.4,65.4,29.87,ENE,76,1.7,4.6,100,0.00,-RA,,0.04,WeatherDisplay:10.37,2013-08-06 04:51:00,
2013-08-05 23:56:00,65.4,65.4,29.87,ENE,76,0.0,0.0,100,0.00,-RA,,0.04,WeatherDisplay:10.37,2013-08-06 04:56:00,